Change the Weather History Date:

Thursday, October 18, 2012

  Actual Average Record
Temperature  
Mean Temperature 79 °F 80 °F  
Max Temperature 84 °F 84 °F 90 °F (2007)
Min Temperature 73 °F 76 °F 65 °F (2000)
Degree Days  
Heating Degree Days 0 0  
Month to date heating degree days 0 0  
Since 1 July heating degree days 0 0  
Cooling Degree Days 14 15  
Month to date cooling degree days 315 291  
Year to date cooling degree days 4166 4026  
Growing Degree Days 28 (Base 50)    
Moisture  
Dew Point 75 °F    
Average Humidity 83    
Maximum Humidity 91    
Minimum Humidity 74    
Precipitation  
Precipitation 0.36 in 0.15 in 5.92 in (1924)
Month to date precipitation 2.73 3.20  
Year to date precipitation 45.61 33.58  
Snow  
Snow 0.00 in - - ()
Month to date snowfall 0.0  
Since 1 July snowfall 0.0  
Since 1 September snowfall 0.0  
Snow Depth 0.00 in    
Sea Level Pressure  
Sea Level Pressure 29.86 in    
Wind  
Wind Speed 6 mph (SSE)    
Max Wind Speed 21 mph    
Max Gust Speed 25 mph    
Visibility 9 miles    
Events Rain , Thunderstorm    
T = Trace of Precipitation, MM = Missing Value Source: NWS Daily Summary

Daily Weather History Graph

Daily Weather History Graph

Search for Another Location

Airport or City:

Trip Planner

Search our weather history database for the weather conditions in past years. The results will help you decide how hot, cold, wet, or windy it might be!

Date:

Astronomy

Oct. 18, 2012 Rise Set
Actual Time 7:26 AM EDT 6:57 PM EDT
Civil Twilight 7:03 AM EDT 7:20 PM EDT
Nautical Twilight 6:36 AM EDT 7:46 PM EDT
Astronomical Twilight 6:10 AM EDT 8:13 PM EDT
Moon 10:45 AM EDT (10/18) 9:51 PM EDT (10/18)
Length of Visible Light 12h 16m
Length of Day
11h 30m
Waxing Crescent, 14% of the Moon is Illuminated
Oct 18
Waxing Crescent
Oct 21
First Quarter
Oct 29
Full
Nov 6
Last Quarter
Nov 13
New

Hourly Weather History & Observations

Time (EDT) Temp. Heat Index Dew Point Humidity Pressure Visibility Wind Dir Wind Speed Gust Speed Precip Events Conditions
12:53 AM 82.0 °F 89.4 °F 75.9 °F 82% 29.85 in 10.0 mi SSE 5.8 mph - N/A   Partly Cloudy
1:53 AM 81.0 °F 86.2 °F 73.9 °F 79% 29.84 in 10.0 mi ESE 3.5 mph - N/A Thunderstorm Thunderstorm
2:09 AM 80.6 °F 85.4 °F 73.4 °F 79% 29.84 in 10.0 mi South 3.5 mph - N/A   Overcast
2:25 AM 78.8 °F - 73.4 °F 83% 29.84 in 10.0 mi SSW 18.4 mph 25.3 mph 0.00 in Rain , Thunderstorm Light Thunderstorms and Rain
2:53 AM 78.1 °F - 73.9 °F 87% 29.82 in 10.0 mi South 10.4 mph - 0.01 in   Mostly Cloudy
3:53 AM 79.0 °F - 73.0 °F 82% 29.82 in 10.0 mi SE 6.9 mph - 0.00 in   Partly Cloudy
4:53 AM 79.0 °F - 73.0 °F 82% 29.81 in 10.0 mi SE 4.6 mph - N/A   Scattered Clouds
5:53 AM 79.0 °F - 73.9 °F 84% 29.82 in 10.0 mi ESE 5.8 mph - N/A   Clear
6:53 AM 79.0 °F - 75.0 °F 88% 29.84 in 10.0 mi ESE 4.6 mph - N/A   Clear
7:53 AM 78.1 °F - 75.0 °F 90% 29.86 in 10.0 mi ENE 4.6 mph - N/A   Partly Cloudy
8:53 AM 81.0 °F 87.3 °F 75.9 °F 85% 29.88 in 10.0 mi East 8.1 mph - N/A   Partly Cloudy
9:25 AM 80.6 °F 86.2 °F 75.2 °F 84% 29.89 in 10.0 mi ENE 3.5 mph - 0.01 in Rain , Thunderstorm Thunderstorms and Rain
9:32 AM 78.8 °F - 75.2 °F 89% 29.90 in 3.0 mi West 8.1 mph - 0.01 in Rain , Thunderstorm Light Thunderstorms and Rain
9:48 AM 75.2 °F - 71.6 °F 89% 29.89 in 1.8 mi West 13.8 mph 19.6 mph 0.12 in Rain , Thunderstorm Heavy Thunderstorms and Rain
9:53 AM 73.9 °F - 70.0 °F 87% 29.89 in 1.8 mi West 15.0 mph 19.6 mph 0.19 in Rain , Thunderstorm Heavy Thunderstorms and Rain
9:55 AM 73.4 °F - 69.8 °F 88% 29.89 in 2.0 mi West 11.5 mph 19.6 mph 0.03 in Rain , Thunderstorm Heavy Thunderstorms and Rain
10:12 AM 73.4 °F - 71.6 °F 94% 29.90 in 9.0 mi SSW 5.8 mph - 0.16 in Rain , Thunderstorm Light Thunderstorms and Rain
10:53 AM 80.1 °F 85.8 °F 77.0 °F 90% 29.89 in 10.0 mi Calm Calm - 0.16 in Thunderstorm Thunderstorm
11:04 AM 80.6 °F 86.2 °F 75.2 °F 84% 29.90 in 10.0 mi Calm Calm - N/A Thunderstorm Thunderstorm
11:15 AM 80.6 °F 86.2 °F 75.2 °F 84% 29.90 in 10.0 mi NE 3.5 mph - N/A Thunderstorm Thunderstorm
11:53 AM 80.1 °F 84.2 °F 73.0 °F 79% 29.90 in 10.0 mi South 4.6 mph - 0.00 in Thunderstorm Thunderstorm
12:05 PM 80.6 °F 85.4 °F 73.4 °F 79% 29.90 in 10.0 mi South 5.8 mph - 0.00 in   Mostly Cloudy
12:53 PM 82.0 °F 88.6 °F 75.0 °F 79% 29.88 in 10.0 mi South 3.5 mph - 0.00 in   Clear
1:53 PM 82.9 °F 90.8 °F 75.9 °F 79% 29.86 in 10.0 mi SSW 5.8 mph - N/A   Clear
2:53 PM 82.9 °F 90.8 °F 75.9 °F 79% 29.84 in 10.0 mi SSE 4.6 mph - N/A   Clear
3:53 PM 84.0 °F 92.6 °F 75.9 °F 76% 29.83 in 10.0 mi SSW 6.9 mph - N/A   Clear
4:53 PM 84.0 °F 92.6 °F 75.9 °F 76% 29.83 in 10.0 mi SSW 5.8 mph - N/A   Clear
5:53 PM 82.9 °F 90.2 °F 75.0 °F 77% 29.83 in 10.0 mi South 5.8 mph - N/A   Clear
6:53 PM 82.9 °F 90.2 °F 75.0 °F 77% 29.85 in 10.0 mi SSW 5.8 mph - N/A   Clear
7:53 PM 82.9 °F 90.2 °F 75.0 °F 77% 29.86 in 10.0 mi SSE 3.5 mph - N/A   Partly Cloudy
8:53 PM 82.0 °F 89.4 °F 75.9 °F 82% 29.88 in 10.0 mi SE 4.6 mph - N/A   Partly Cloudy
9:53 PM 82.4 °F 89.5 °F 75.2 °F 79% 29.88 in 10.0 mi SSE 4.6 mph - N/A   Clear
10:53 PM 82.0 °F 89.4 °F 75.9 °F 82% 29.89 in 10.0 mi SE 8.1 mph - N/A   Clear
11:53 PM 82.0 °F 89.4 °F 75.9 °F 82% 29.89 in 10.0 mi SSE 10.4 mph - N/A   Scattered Clouds